Starlink 3732

operational
NORAD ID: 52126 Int'l Des: 2022-029 Owner: SPXS Country: US Constellation: starlink
LEOCIRCULAR

Über Starlink 3732

Beschreibung wird geladen...

Live-Position

3D-Globus wird geladen...

Nächste Überflüge

Höhenverlauf

Altitude vs Time

uPlot chart will show altitude changes over time

Zweizeiliger Elementsatz

1 52126U 22029AQ 25306.25131277 .00000391 00000-0 42678-4 0 9999
2 52126 53.2192 281.2121 0001573 88.6625 271.4547 15.08840496201680
Epoch: 2. Nov. 2025 • Age: 38 hours

Aktueller Status

Höhe 540.6 km
Geschwindigkeit 7.60 km/s
Subsatellitenpunkt 28.24°N, 50.93°W
Startdatum 19. März 2022
Alter 3.6 years
Typ internet

Technische Details

Klassifizierung Payload
Masse 297.00 kg
Trockenmasse 275.00 kg
Gesamtmasse 297.00 kg
Länge 0.20 m
Durchmesser 2.80 m
Spannweite 9.00 m
Form Box + pan
Hersteller SPXS
Bus-Typ Starlink
Phasenstatus In Orbit
Besitzer/Staat SPXS/US

Große Konstellationen

Loading constellations...